Location: Newark
(31.5350°N, 35.0986°E)
Time: 00:37:09
(UTC+00:00)

Transit 4A - Pass Details

Date: 26 October 2019
Orbit: 868 x 976 km, 66.8° (Epoch: 12 November)

Event Time Altitude Azimuth Distance (km) Brightness Sun altitude
Rises 23:45:57 0° 189° (S) 3,657 - -52.2°
Reaches altitude 10° 23:48:35 10° 184° (S) 2,710 - -51.7°
Maximum altitude 23:54:42 51° 110° (ESE) 1,199 - -50.5°
Drops below altitude 10° 00:00:44 10° 37° (NE) 2,681 - -49.3°
Exits shadow 00:01:18 - 35° (NE) 2,881 10.9 -49.2°
Sets 00:03:19 0° 32° (NNE) 3,615 11.4 -48.8°
